,,,PA_Meas_PMT16A,,PR_Meas_QMR101_102,,RH_Meas_QMH101,,SR_Meas_QMS101,,TA_Meas_QMH101,,GenWind,,GenWind,
date,time,status,PA,status,PR,status,RH,status,SR,status,TA,status,DirAvg,status,SpdAvg,
2009-07-29, 00:00:04,VALID,1002.19,VALID,0,VALID,75.3044,VALID,0,VALID,23.2134,VALID,109,VALID,1.59102,
2009-07-29, 00:01:04,VALID,1002.15,VALID,0,VALID,74.1446,VALID,0,VALID,23.1744,VALID,130,VALID,2.11758,
2009-07-29, 00:02:04,VALID,1002.14,VALID,0,VALID,75.7545,VALID,0,VALID,23.2312,VALID,108,VALID,1.87188,
2009-07-29, 00:03:04,VALID,1002.15,VALID,0,VALID,76.4259,VALID,0,VALID,23.1744,VALID,112,VALID,1.93672,
2009-07-29, 00:04:04,VALID,1002.14,VALID,0,VALID,75.8308,VALID,0,VALID,23.1159,VALID,118,VALID,2.01836,
2009-07-29, 00:05:04,VALID,1002.11,VALID,0,VALID,75.4569,VALID,0,VALID,23.1354,VALID,126,VALID,1.36289,
2009-07-29, 00:06:04,VALID,1002.11,VALID,0,VALID,75.2891,VALID,0,VALID,23.1549,VALID,124,VALID,1.39609,
2009-07-29, 00:07:04,VALID,1002.13,VALID,0,VALID,75.312,VALID,0,VALID,23.1939,VALID,113,VALID,2.16289,
2009-07-29, 00:08:04,VALID,1002.1,VALID,0,VALID,75.6706,VALID,0,VALID,23.1939,VALID,114,VALID,1.77266,
2009-07-29, 00:09:04,VALID,1002.08,VALID,0,VALID,75.9147,VALID,0,VALID,23.2329,VALID,116,VALID,1.67383,
2009-07-29, 00:10:04,VALID,1002.1,VALID,0,VALID,76.0368,VALID,0,VALID,23.1939,VALID,121,VALID,1.74531,
2009-07-29, 00:11:04,VALID,1002.09,VALID,0,VALID,75.6858,VALID,0,VALID,23.1762,VALID,129,VALID,1.79492,
2009-07-29, 00:12:04,VALID,1002.08,VALID,0,VALID,75.7621,VALID,0,VALID,23.1744,VALID,121,VALID,1.51797,
2009-07-29, 00:13:04,VALID,1002.07,VALID,0,VALID,75.5256,VALID,0,VALID,23.1744,VALID,127,VALID,1.98047,
2009-07-29, 00:14:04,VALID,1002.07,VALID,0,VALID,75.5027,VALID,0,VALID,23.2134,VALID,130,VALID,1.64023,
2009-07-29, 00:15:04,VALID,1002.06,VALID,0,VALID,75.8232,VALID,0,VALID,23.2329,VALID,142,VALID,1.50234,
2009-07-29, 00:16:04,VALID,1002.07,VALID,0,VALID,76.0826,VALID,0,VALID,23.1921,VALID,134,VALID,1.22695,
2009-07-29, 00:17:04,VALID,1002.04,VALID,0,VALID,76.4793,VALID,0,VALID,23.1744,VALID,134,VALID,1.93086,
2009-07-29, 00:18:04,VALID,1001.99,VALID,0,VALID,76.2199,VALID,0,VALID,23.1744,VALID,120,VALID,1.41562,
2009-07-29, 00:19:04,VALID,1002,VALID,0,VALID,75.5409,VALID,0,VALID,23.2134,VALID,117,VALID,1.77656,
2009-07-29, 00:20:04,VALID,1001.98,VALID,0,VALID,73.9692,VALID,0,VALID,23.4493,VALID,123,VALID,1.39375,
2009-07-29, 00:21:04,VALID,1001.98,VALID,0,VALID,73.8547,VALID,0,VALID,23.5061,VALID,130,VALID,1.43828,
2009-07-29, 00:22:04,VALID,1001.98,VALID,0,VALID,73.7021,VALID,0,VALID,23.4671,VALID,135,VALID,1.52734,
2009-07-29, 00:23:04,VALID,1001.96,VALID,0,VALID,73.725,VALID,0,VALID,23.4866,VALID,127,VALID,1.24727,
2009-07-29, 00:24:04,VALID,1001.94,VALID,0,VALID,73.6487,VALID,0,VALID,23.4475,VALID,122,VALID,1.47305,
2009-07-29, 00:25:04,VALID,1001.96,VALID,0,VALID,73.5648,VALID,0,VALID,23.389,VALID,119,VALID,1.86953,
2009-07-29, 00:26:04,VALID,1001.93,VALID,0,VALID,73.4198,VALID,0,VALID,23.4103,VALID,110,VALID,1.69531,
2009-07-29, 00:27:04,VALID,1001.92,VALID,0,VALID,73.6182,VALID,0,VALID,23.4671,VALID,99,VALID,1.74023,
2009-07-29, 00:28:04,VALID,1001.92,VALID,0,VALID,74.9,VALID,0,VALID,23.4475,VALID,105,VALID,2.00703,
2009-07-29, 00:29:04,VALID,1001.94,VALID,0,VALID,75.8232,VALID,0,VALID,23.3305,VALID,104,VALID,2.13203,
2009-07-29, 00:30:04,VALID,1001.93,VALID,0,VALID,76.6701,VALID,0.112286,VALID,23.2134,VALID,107,VALID,2.04336,
2009-07-29, 00:31:04,VALID,1001.92,VALID,0,VALID,75.8689,VALID,0,VALID,23.1159,VALID,108,VALID,2.27656,
2009-07-29, 00:32:04,VALID,1001.89,VALID,0,VALID,76.3649,VALID,0,VALID,23.1744,VALID,107,VALID,1.08633,
2009-07-29, 00:33:04,VALID,1001.91,VALID,0,VALID,76.7845,VALID,0,VALID,23.1744,VALID,134,VALID,0.847266,
2009-07-29, 00:34:04,VALID,1001.9,VALID,0,VALID,77.0439,VALID,0,VALID,23.1549,VALID,121,VALID,0.555859,
2009-07-29, 00:35:04,VALID,1001.9,VALID,0,VALID,76.9981,VALID,0,VALID,23.0769,VALID,195,VALID,0.978516,
2009-07-29, 00:36:04,VALID,1001.89,VALID,0,VALID,77.2499,VALID,0,VALID,23.0573,VALID,133,VALID,0.554688,
2009-07-29, 00:37:04,VALID,1001.88,VALID,0,VALID,76.9142,VALID,0,VALID,22.9988,VALID,119,VALID,1.01719,
2009-07-29, 00:38:04,VALID,1001.89,VALID,0,VALID,75.9147,VALID,0,VALID,22.9581,VALID,124,VALID,1.36992,
2009-07-29, 00:39:04,VALID,1001.9,VALID,0,VALID,75.0373,VALID,0,VALID,23.0378,VALID,124,VALID,1.21016,
2009-07-29, 00:40:04,VALID,1001.87,VALID,0,VALID,74.3506,VALID,0,VALID,23.1957,VALID,121,VALID,0.891406,
2009-07-29, 00:41:04,VALID,1001.87,VALID,0,VALID,73.9005,VALID,0,VALID,23.2524,VALID,136,VALID,0.240234,
2009-07-29, 00:42:04,VALID,1001.86,VALID,0,VALID,73.5114,VALID,0,VALID,23.2897,VALID,162,VALID,1.27539,
2009-07-29, 00:43:04,VALID,1001.89,VALID,0,VALID,74.4041,VALID,0,VALID,23.4085,VALID,109,VALID,1.14609,
2009-07-29, 00:44:04,VALID,1001.89,VALID,0,VALID,75.1823,VALID,0.112286,VALID,23.389,VALID,100,VALID,1.49023,
2009-07-29, 00:45:04,VALID,1001.88,VALID,0,VALID,75.4646,VALID,0,VALID,23.311,VALID,100,VALID,1.3,
2009-07-29, 00:46:04,VALID,1001.88,VALID,0,VALID,75.4035,VALID,0.112286,VALID,23.1921,VALID,101,VALID,0.995313,
2009-07-29, 00:47:04,VALID,1001.84,VALID,0,VALID,75.3349,VALID,0,VALID,23.1744,VALID,97,VALID,0.842578,
2009-07-29, 00:48:04,VALID,1001.83,VALID,0,VALID,75.1212,VALID,0,VALID,23.1549,VALID,99,VALID,0.845703,
2009-07-29, 00:49:04,VALID,1001.8,VALID,0,VALID,75.3806,VALID,0,VALID,23.1159,VALID,95,VALID,0.806641,
2009-07-29, 00:50:04,VALID,1001.79,VALID,0,VALID,75.2967,VALID,0.112286,VALID,23.0556,VALID,103,VALID,1.21563,
2009-07-29, 00:51:04,VALID,1001.77,VALID,0,VALID,75.2509,VALID,0,VALID,23.0573,VALID,106,VALID,1.23477,
2009-07-29, 00:52:04,VALID,1001.76,VALID,0,VALID,75.3959,VALID,0,VALID,23.0573,VALID,114,VALID,1.0707,
2009-07-29, 00:53:04,VALID,1001.76,VALID,0,VALID,75.2357,VALID,0,VALID,23.0769,VALID,105,VALID,1.04375,
2009-07-29, 00:54:04,VALID,1001.75,VALID,0,VALID,75.2815,VALID,0,VALID,23.0964,VALID,107,VALID,0.786719,
2009-07-29, 00:55:04,VALID,1001.72,VALID,0,VALID,75.2052,VALID,0,VALID,23.1159,VALID,107,VALID,0.762891,
2009-07-29, 00:56:04,VALID,1001.71,VALID,0,VALID,75.4569,VALID,0,VALID,23.1176,VALID,112,VALID,0.717578,
2009-07-29, 00:57:04,VALID,1001.73,VALID,0,VALID,75.3806,VALID,0,VALID,23.0591,VALID,146,VALID,0.958984,
2009-07-29, 00:58:04,VALID,1001.68,VALID,0,VALID,75.106,VALID,0,VALID,23.0396,VALID,147,VALID,0.7,
2009-07-29, 00:59:04,VALID,1001.65,VALID,0,VALID,75.0831,VALID,0,VALID,22.9988,VALID,126,VALID,0.765625,
2009-07-29, 01:00:04,VALID,1001.63,VALID,0,VALID,74.4956,VALID,0,VALID,23.0378,VALID,130,VALID,1.20898,
2009-07-29, 01:01:04,VALID,1001.61,VALID,0,VALID,74.694,VALID,0,VALID,23.0964,VALID,127,VALID,0.934766,
2009-07-29, 01:02:04,VALID,1001.56,VALID,0,VALID,75.106,VALID,0,VALID,23.0964,VALID,123,VALID,0.698047,
2009-07-29, 01:03:04,VALID,1001.53,VALID,0,VALID,75.0221,VALID,0,VALID,23.0769,VALID,117,VALID,0.644922,
2009-07-29, 01:04:04,VALID,1001.53,VALID,0,VALID,75.0907,VALID,0,VALID,23.0573,VALID,118,VALID,0.867969,
2009-07-29, 01:05:04,VALID,1001.52,VALID,0,VALID,75.0221,VALID,0,VALID,23.0573,VALID,119,VALID,1.09102,
2009-07-29, 01:06:04,VALID,1001.5,VALID,0,VALID,74.7626,VALID,0,VALID,23.0573,VALID,121,VALID,1.16406,
2009-07-29, 01:07:04,VALID,1001.5,VALID,0,VALID,74.7016,VALID,0,VALID,23.0573,VALID,132,VALID,0.520312,
2009-07-29, 01:08:04,VALID,1001.51,VALID,0,VALID,74.1446,VALID,0,VALID,23.0573,VALID,125,VALID,1.16289,
2009-07-29, 01:09:04,VALID,1001.49,VALID,0,VALID,74.0073,VALID,0,VALID,23.0769,VALID,126,VALID,1.1582,
2009-07-29, 01:10:04,VALID,1001.47,VALID,0,VALID,73.9844,VALID,0.112286,VALID,23.1159,VALID,134,VALID,1.36992,
2009-07-29, 01:11:04,VALID,1001.44,VALID,0,VALID,73.9921,VALID,0,VALID,23.1141,VALID,115,VALID,1.16445,
2009-07-29, 01:12:04,VALID,1001.45,VALID,0,VALID,73.5495,VALID,0,VALID,23.1354,VALID,128,VALID,1.78594,
2009-07-29, 01:13:04,VALID,1001.46,VALID,0,VALID,73.6716,VALID,0,VALID,23.1939,VALID,130,VALID,1.42852,
2009-07-29, 01:14:04,VALID,1001.45,VALID,0,VALID,73.5953,VALID,0,VALID,23.2524,VALID,129,VALID,1.89727,
2009-07-29, 01:15:04,VALID,1001.44,VALID,0,VALID,73.7784,VALID,0,VALID,23.2915,VALID,125,VALID,1.64258,
2009-07-29, 01:16:04,VALID,1001.43,VALID,0,VALID,73.5953,VALID,0,VALID,23.311,VALID,126,VALID,1.48711,
2009-07-29, 01:17:04,VALID,1001.45,VALID,0,VALID,73.2978,VALID,0,VALID,23.311,VALID,128,VALID,2.24961,
2009-07-29, 01:18:04,VALID,1001.38,VALID,0,VALID,72.84,VALID,0.112286,VALID,23.35,VALID,122,VALID,3.17578,
2009-07-29, 01:19:04,VALID,1001.39,VALID,0,VALID,73.1833,VALID,0,VALID,23.428,VALID,123,VALID,2.83437,
2009-07-29, 01:20:04,VALID,1001.4,VALID,0,VALID,73.4427,VALID,0,VALID,23.428,VALID,123,VALID,2.41641,
2009-07-29, 01:21:04,VALID,1001.38,VALID,0,VALID,73.6716,VALID,0,VALID,23.4085,VALID,120,VALID,2.26406,
2009-07-29, 01:22:04,VALID,1001.38,VALID,0,VALID,73.5648,VALID,0.112286,VALID,23.3695,VALID,123,VALID,2.34844,
2009-07-29, 01:23:04,VALID,1001.39,VALID,0,VALID,73.6869,VALID,0,VALID,23.3305,VALID,123,VALID,2.11914,
2009-07-29, 01:24:04,VALID,1001.39,VALID,0,VALID,74.0378,VALID,0,VALID,23.311,VALID,125,VALID,2.11055,
2009-07-29, 01:25:04,VALID,1001.36,VALID,0,VALID,74.282,VALID,0,VALID,23.2915,VALID,132,VALID,1.5293,
2009-07-29, 01:26:04,VALID,1001.4,VALID,0,VALID,73.0155,VALID,0,VALID,23.2932,VALID,129,VALID,1.97891,
2009-07-29, 01:27:04,VALID,1001.4,VALID,0,VALID,73.1528,VALID,0,VALID,23.35,VALID,129,VALID,1.46094,
2009-07-29, 01:28:04,VALID,1001.38,VALID,0,VALID,72.4661,VALID,0,VALID,23.3305,VALID,134,VALID,2.12109,
2009-07-29, 01:29:04,VALID,1001.37,VALID,0,VALID,72.6492,VALID,0,VALID,23.389,VALID,128,VALID,2.05586,
2009-07-29, 01:30:04,VALID,1001.33,VALID,0,VALID,72.7255,VALID,0,VALID,23.4085,VALID,127,VALID,2.57969,
2009-07-29, 01:31:04,VALID,1001.35,VALID,0,VALID,72.9697,VALID,0,VALID,23.428,VALID,134,VALID,1.79492,
2009-07-29, 01:32:04,VALID,1001.36,VALID,0,VALID,72.6874,VALID,0,VALID,23.428,VALID,146,VALID,1.65195,
2009-07-29, 01:33:04,VALID,1001.35,VALID,0,VALID,71.871,VALID,0,VALID,23.4493,VALID,144,VALID,1.53242,
2009-07-29, 01:34:04,VALID,1001.3,VALID,0,VALID,70.8792,VALID,0,VALID,23.4671,VALID,135,VALID,2.19922,
2009-07-29, 01:35:04,VALID,1001.32,VALID,0,VALID,71.3446,VALID,0,VALID,23.5061,VALID,128,VALID,1.72187,
2009-07-29, 01:36:04,VALID,1001.28,VALID,0,VALID,71.4667,VALID,0,VALID,23.5469,VALID,129,VALID,2.07813,
2009-07-29, 01:37:04,VALID,1001.29,VALID,0,VALID,71.81,VALID,0,VALID,23.5469,VALID,127,VALID,1.58477,
2009-07-29, 01:38:04,VALID,1001.27,VALID,0,VALID,71.9244,VALID,0,VALID,23.5079,VALID,124,VALID,1.9582,
2009-07-29, 01:39:04,VALID,1001.24,VALID,0,VALID,72.1838,VALID,0,VALID,23.4866,VALID,121,VALID,1.74648,
2009-07-29, 01:40:04,VALID,1001.19,VALID,0,VALID,71.9702,VALID,0,VALID,23.4866,VALID,133,VALID,2.02266,
2009-07-29, 01:41:04,VALID,1001.24,VALID,0,VALID,71.9168,VALID,0,VALID,23.4866,VALID,127,VALID,1.85234,
2009-07-29, 01:42:04,VALID,1001.21,VALID,0,VALID,71.8329,VALID,0,VALID,23.5079,VALID,124,VALID,2.49062,
2009-07-29, 01:43:04,VALID,1001.18,VALID,0,VALID,71.5353,VALID,0,VALID,23.4866,VALID,120,VALID,2.26914,
2009-07-29, 01:44:04,VALID,1001.16,VALID,0,VALID,71.7871,VALID,0,VALID,23.5256,VALID,125,VALID,1.98164,
2009-07-29, 01:45:04,VALID,1001.17,VALID,0,VALID,71.5811,VALID,0,VALID,23.5469,VALID,124,VALID,1.99375,
2009-07-29, 01:46:04,VALID,1001.16,VALID,0,VALID,71.4819,VALID,0,VALID,23.5256,VALID,115,VALID,1.56953,
2009-07-29, 01:47:04,VALID,1001.17,VALID,0,VALID,71.5124,VALID,0,VALID,23.5079,VALID,127,VALID,1.47148,
2009-07-29, 01:48:04,VALID,1001.17,VALID,0,VALID,70.9936,VALID,0,VALID,23.4671,VALID,134,VALID,1.7875,
2009-07-29, 01:49:04,VALID,1001.16,VALID,0,VALID,70.4061,VALID,0,VALID,23.5469,VALID,139,VALID,2.46523,
2009-07-29, 01:50:04,VALID,1001.15,VALID,0,VALID,69.6355,VALID,0,VALID,23.5841,VALID,145,VALID,2.09844,
2009-07-29, 01:51:04,VALID,1001.15,VALID,0,VALID,70.5892,VALID,0,VALID,23.6232,VALID,128,VALID,1.04531,
2009-07-29, 01:52:04,VALID,1001.12,VALID,0,VALID,70.6732,VALID,0,VALID,23.6036,VALID,110,VALID,1.85234,
2009-07-29, 01:53:04,VALID,1001.14,VALID,0,VALID,70.6732,VALID,0,VALID,23.5451,VALID,112,VALID,0.932813,
2009-07-29, 01:54:04,VALID,1001.12,VALID,0,VALID,71.0165,VALID,0,VALID,23.4884,VALID,108,VALID,0.851172,
2009-07-29, 01:55:04,VALID,1001.15,VALID,0,VALID,72.9926,VALID,0,VALID,23.4103,VALID,94,VALID,1.19336,
2009-07-29, 01:56:04,VALID,1001.17,VALID,0,VALID,73.313,VALID,0,VALID,23.2524,VALID,96,VALID,1.25,
2009-07-29, 01:57:04,VALID,1001.16,VALID,0,VALID,72.9315,VALID,0,VALID,23.1762,VALID,97,VALID,1.25117,
2009-07-29, 01:58:04,VALID,1001.2,VALID,0,VALID,73.313,VALID,0,VALID,23.1744,VALID,87,VALID,1.51289,
2009-07-29, 01:59:04,VALID,1001.17,VALID,0,VALID,73.3893,VALID,0,VALID,23.1354,VALID,93,VALID,1.46953,
2009-07-29, 02:00:04,VALID,1001.18,VALID,0,VALID,74.0531,VALID,0,VALID,23.0964,VALID,98,VALID,1.67383,
2009-07-29, 02:01:04,VALID,1001.21,VALID,0,VALID,73.7479,VALID,0,VALID,23.0591,VALID,95,VALID,1.31406,
2009-07-29, 02:02:04,VALID,1001.17,VALID,0,VALID,73.8089,VALID,0,VALID,23.0183,VALID,100,VALID,0.935156,
2009-07-29, 02:03:04,VALID,1001.17,VALID,0,VALID,73.9921,VALID,0,VALID,22.9988,VALID,105,VALID,1.01367,
2009-07-29, 02:04:04,VALID,1001.17,VALID,0,VALID,73.7098,VALID,0,VALID,22.9403,VALID,116,VALID,1.68281,
2009-07-29, 02:05:04,VALID,1001.13,VALID,0,VALID,72.5806,VALID,0,VALID,23.0591,VALID,128,VALID,1.61172,
2009-07-29, 02:06:04,VALID,1001.17,VALID,0,VALID,72.6798,VALID,0,VALID,23.2347,VALID,109,VALID,1.07461,
2009-07-29, 02:07:04,VALID,1001.13,VALID,0,VALID,72.5806,VALID,0,VALID,23.2524,VALID,120,VALID,1.2707,
2009-07-29, 02:08:04,VALID,1001.15,VALID,0,VALID,71.5735,VALID,0,VALID,23.311,VALID,113,VALID,1.54023,
2009-07-29, 02:09:04,VALID,1001.13,VALID,0,VALID,70.2078,VALID,0,VALID,23.35,VALID,123,VALID,1.4625,
2009-07-29, 02:10:04,VALID,1001.18,VALID,0,VALID,71.3446,VALID,0,VALID,23.4866,VALID,110,VALID,1.54883,
2009-07-29, 02:11:04,VALID,1001.17,VALID,0,VALID,71.9321,VALID,0,VALID,23.428,VALID,108,VALID,1.83828,
2009-07-29, 02:12:04,VALID,1001.15,VALID,0,VALID,72.016,VALID,0,VALID,23.311,VALID,105,VALID,1.91172,
2009-07-29, 02:13:04,VALID,1001.16,VALID,0,VALID,72.5501,VALID,0,VALID,23.2329,VALID,107,VALID,1.84102,
2009-07-29, 02:14:04,VALID,1001.17,VALID,0,VALID,73.0002,VALID,0,VALID,23.1957,VALID,110,VALID,1.64297,
2009-07-29, 02:15:04,VALID,1001.17,VALID,0,VALID,72.3059,VALID,0,VALID,23.1566,VALID,107,VALID,1.67148,
2009-07-29, 02:16:04,VALID,1001.16,VALID,0,VALID,72.695,VALID,0,VALID,23.1939,VALID,107,VALID,1.44531,
2009-07-29, 02:17:04,VALID,1001.17,VALID,0,VALID,72.5195,VALID,0,VALID,23.2134,VALID,107,VALID,1.23203,
2009-07-29, 02:18:04,VALID,1001.16,VALID,0,VALID,71.81,VALID,0,VALID,23.2542,VALID,119,VALID,1.34219,
2009-07-29, 02:19:04,VALID,1001.12,VALID,0,VALID,71.5964,VALID,0,VALID,23.2347,VALID,123,VALID,1.46797,
2009-07-29, 02:20:04,VALID,1001.14,VALID,0,VALID,71.2454,VALID,0,VALID,23.2932,VALID,115,VALID,1.75117,
2009-07-29, 02:21:04,VALID,1001.16,VALID,0,VALID,71.5201,VALID,0,VALID,23.311,VALID,129,VALID,1.58516,
2009-07-29, 02:22:04,VALID,1001.14,VALID,0,VALID,71.253,VALID,0,VALID,23.3305,VALID,124,VALID,1.38437,
2009-07-29, 02:23:04,VALID,1001.11,VALID,0,VALID,69.9941,VALID,0,VALID,23.35,VALID,123,VALID,2.25547,
2009-07-29, 02:24:04,VALID,1001.1,VALID,0,VALID,69.8568,VALID,0,VALID,23.4671,VALID,124,VALID,2.41758,
2009-07-29, 02:25:04,VALID,1001.16,VALID,0,VALID,70.1772,VALID,0,VALID,23.5256,VALID,123,VALID,2.10859,
2009-07-29, 02:26:04,VALID,1001.12,VALID,0,VALID,69.2998,VALID,0,VALID,23.6036,VALID,127,VALID,2.33281,
2009-07-29, 02:27:04,VALID,1001.13,VALID,0,VALID,69.4677,VALID,0,VALID,23.6622,VALID,138,VALID,2.13281,
2009-07-29, 02:28:04,VALID,1001.16,VALID,0,VALID,69.6661,VALID,0,VALID,23.6817,VALID,141,VALID,2.68789,
2009-07-29, 02:29:04,VALID,1001.19,VALID,0,VALID,70.1238,VALID,0,VALID,23.6622,VALID,141,VALID,2.00312,
2009-07-29, 02:30:04,VALID,1001.17,VALID,0,VALID,70.6198,VALID,0,VALID,23.5628,VALID,127,VALID,2.24805,
2009-07-29, 02:31:05,VALID,1001.16,VALID,0,VALID,70.0552,VALID,0,VALID,23.5841,VALID,134,VALID,2.75352,
2009-07-29, 02:32:05,VALID,1001.15,VALID,0,VALID,69.3761,VALID,0,VALID,23.7012,VALID,127,VALID,2.50078,
2009-07-29, 02:33:05,VALID,1001.14,VALID,0,VALID,69.8339,VALID,0,VALID,23.7189,VALID,129,VALID,2.10352,
2009-07-29, 02:34:05,VALID,1001.16,VALID,0,VALID,70.0857,VALID,0,VALID,23.7402,VALID,120,VALID,1.99805,
2009-07-29, 02:35:05,VALID,1001.14,VALID,0,VALID,70.2764,VALID,0,VALID,23.6622,VALID,131,VALID,2.09414,
2009-07-29, 02:36:05,VALID,1001.17,VALID,0,VALID,70.6808,VALID,0.112286,VALID,23.5841,VALID,123,VALID,2.26445,
2009-07-29, 02:37:05,VALID,1001.15,VALID,0,VALID,71.1081,VALID,0,VALID,23.5451,VALID,135,VALID,1.275,
2009-07-29, 02:38:05,VALID,1001.14,VALID,0,VALID,70.4443,VALID,0.112286,VALID,23.5256,VALID,129,VALID,1.94453,
2009-07-29, 02:39:05,VALID,1001.16,VALID,0,VALID,70.0857,VALID,0,VALID,23.5646,VALID,140,VALID,2.01719,
2009-07-29, 02:40:05,VALID,1001.17,VALID,0,VALID,70.5282,VALID,0,VALID,23.5841,VALID,146,VALID,2.56875,
2009-07-29, 02:41:05,VALID,1001.17,VALID,0,VALID,70.8334,VALID,0,VALID,23.5646,VALID,134,VALID,2.12109,
2009-07-29, 02:42:05,VALID,1001.15,VALID,0,VALID,71.4361,VALID,0,VALID,23.5061,VALID,123,VALID,2.22266,
2009-07-29, 02:43:05,VALID,1001.17,VALID,0,VALID,71.4972,VALID,0,VALID,23.4475,VALID,138,VALID,1.92266,
2009-07-29, 02:44:05,VALID,1001.15,VALID,0,VALID,71.1844,VALID,0,VALID,23.428,VALID,141,VALID,2.72344,
2009-07-29, 02:45:05,VALID,1001.14,VALID,0,VALID,71.8558,VALID,0,VALID,23.4866,VALID,132,VALID,3.11953,
2009-07-29, 02:46:05,VALID,1001.15,VALID,0,VALID,72.4967,VALID,0,VALID,23.4866,VALID,134,VALID,2.3293,
2009-07-29, 02:47:05,VALID,1001.15,VALID,0,VALID,73.0689,VALID,0,VALID,23.3482,VALID,130,VALID,2.87109,
2009-07-29, 02:48:05,VALID,1001.12,VALID,0,VALID,73.3969,VALID,0,VALID,23.2719,VALID,138,VALID,2.50195,
2009-07-29, 02:49:05,VALID,1001.13,VALID,0,VALID,74.0302,VALID,0,VALID,23.2329,VALID,134,VALID,2.3375,
2009-07-29, 02:50:05,VALID,1001.17,VALID,0,VALID,74.4651,VALID,0,VALID,23.1354,VALID,137,VALID,2.00625,
2009-07-29, 02:51:05,VALID,1001.13,VALID,0,VALID,74.9687,VALID,0.112286,VALID,23.0769,VALID,128,VALID,2.5332,
2009-07-29, 02:52:05,VALID,1001.15,VALID,0,VALID,75.5104,VALID,0,VALID,22.9988,VALID,131,VALID,1.73359,
2009-07-29, 02:53:05,VALID,1001.11,VALID,0,VALID,75.5561,VALID,0,VALID,22.9208,VALID,144,VALID,1.59297,
2009-07-29, 02:54:05,VALID,1001.15,VALID,0,VALID,75.7469,VALID,0,VALID,22.9013,VALID,153,VALID,0.951172,
2009-07-29, 02:55:05,VALID,1001.11,VALID,0,VALID,75.9071,VALID,0,VALID,22.8623,VALID,143,VALID,1.38477,
2009-07-29, 02:56:05,VALID,1001.12,VALID,0,VALID,76.0673,VALID,0,VALID,22.8427,VALID,134,VALID,1.9457,
2009-07-29, 02:57:05,VALID,1001.1,VALID,0,VALID,76.0902,VALID,0,VALID,22.8232,VALID,136,VALID,1.5918,
2009-07-29, 02:58:05,VALID,1001.1,VALID,0,VALID,76.1741,VALID,0,VALID,22.7842,VALID,140,VALID,1.96172,
2009-07-29, 02:59:05,VALID,1001.06,VALID,0,VALID,75.9529,VALID,0,VALID,22.7842,VALID,132,VALID,2.15508,
2009-07-29, 03:00:05,VALID,1001.04,VALID,0,VALID,76.0521,VALID,0,VALID,22.8037,VALID,113,VALID,1.80938,
2009-07-29, 03:01:05,VALID,1001,VALID,0,VALID,76.0978,VALID,0,VALID,22.7842,VALID,118,VALID,2.29102,
2009-07-29, 03:02:05,VALID,1001.07,VALID,0,VALID,76.1589,VALID,0,VALID,22.8232,VALID,122,VALID,2.03047,
2009-07-29, 03:03:05,VALID,1001.06,VALID,0,VALID,76.3649,VALID,0,VALID,22.8232,VALID,126,VALID,1.67305,
2009-07-29, 03:04:05,VALID,1001.1,VALID,0,VALID,76.3572,VALID,0,VALID,22.8037,VALID,141,VALID,2.06797,
2009-07-29, 03:05:05,VALID,1001.11,VALID,0,VALID,76.3878,VALID,0.112286,VALID,22.8232,VALID,141,VALID,1.79492,
2009-07-29, 03:06:05,VALID,1001.07,VALID,0,VALID,76.4717,VALID,0,VALID,22.7842,VALID,131,VALID,1.39297,
2009-07-29, 03:07:05,VALID,1001.05,VALID,0,VALID,76.2504,VALID,0,VALID,22.7647,VALID,135,VALID,1.70391,
2009-07-29, 03:08:05,VALID,1001.01,VALID,0,VALID,75.8308,VALID,0.112286,VALID,22.763,VALID,111,VALID,2.16719,
2009-07-29, 03:09:05,VALID,1001.03,VALID,0,VALID,75.7011,VALID,0,VALID,22.8623,VALID,110,VALID,1.87109,
2009-07-29, 03:10:05,VALID,1001.06,VALID,0,VALID,75.6858,VALID,0.112286,VALID,22.841,VALID,119,VALID,1.81211,
2009-07-29, 03:11:05,VALID,1001.09,VALID,0,VALID,75.9529,VALID,0,VALID,22.8037,VALID,130,VALID,1.80508,
2009-07-29, 03:12:05,VALID,1001.06,VALID,0,VALID,76.0292,VALID,0,VALID,22.7842,VALID,126,VALID,1.23945,
2009-07-29, 03:13:05,VALID,1001.02,VALID,0,VALID,76.1665,VALID,0,VALID,22.7842,VALID,133,VALID,1.54062,
2009-07-29, 03:14:05,VALID,1001.04,VALID,0,VALID,76.2123,VALID,0,VALID,22.7842,VALID,124,VALID,1.6957,
2009-07-29, 03:15:05,VALID,1001.02,VALID,0,VALID,76.4946,VALID,0,VALID,22.7452,VALID,112,VALID,1.56289,
2009-07-29, 03:16:05,VALID,1000.99,VALID,0,VALID,76.5022,VALID,0,VALID,22.7257,VALID,110,VALID,1.61953,
2009-07-29, 03:17:05,VALID,1000.98,VALID,0,VALID,76.7616,VALID,0,VALID,22.7062,VALID,126,VALID,1.80703,
2009-07-29, 03:18:05,VALID,1001,VALID,0,VALID,76.3496,VALID,0,VALID,22.7257,VALID,139,VALID,1.98789,
2009-07-29, 03:19:05,VALID,1000.98,VALID,0,VALID,75.8689,VALID,0,VALID,22.7647,VALID,152,VALID,1.65273,
2009-07-29, 03:20:05,VALID,1000.96,VALID,0,VALID,75.5409,VALID,0,VALID,22.8232,VALID,147,VALID,1.18281,
2009-07-29, 03:21:05,VALID,1000.92,VALID,0,VALID,75.6477,VALID,0.112286,VALID,22.8623,VALID,136,VALID,1.89609,
2009-07-29, 03:22:05,VALID,1000.92,VALID,0,VALID,75.9834,VALID,0,VALID,22.8427,VALID,135,VALID,1.77852,
2009-07-29, 03:23:05,VALID,1000.93,VALID,0,VALID,76.1665,VALID,0,VALID,22.8427,VALID,121,VALID,1.36094,
2009-07-29, 03:24:05,VALID,1000.93,VALID,0,VALID,76.2275,VALID,0,VALID,22.8215,VALID,127,VALID,1.76875,
2009-07-29, 03:25:05,VALID,1000.93,VALID,0,VALID,76.2199,VALID,0,VALID,22.8623,VALID,139,VALID,1.76719,
2009-07-29, 03:26:05,VALID,1000.95,VALID,0,VALID,76.2886,VALID,0,VALID,22.8215,VALID,136,VALID,1.88516,
2009-07-29, 03:27:05,VALID,1000.92,VALID,0,VALID,76.3572,VALID,0.112286,VALID,22.8037,VALID,147,VALID,1.44922,
2009-07-29, 03:28:05,VALID,1000.93,VALID,0,VALID,76.5098,VALID,0.112286,VALID,22.763,VALID,133,VALID,1.69141,
2009-07-29, 03:29:05,VALID,1000.98,VALID,0,VALID,76.2733,VALID,0.112286,VALID,22.763,VALID,131,VALID,2.26172,
2009-07-29, 03:30:05,VALID,1001.01,VALID,0,VALID,76.403,VALID,0.112286,VALID,22.802,VALID,142,VALID,2.00156,
2009-07-29, 03:31:05,VALID,1000.99,VALID,0,VALID,76.6777,VALID,0.112286,VALID,22.8037,VALID,146,VALID,1.51641,
2009-07-29, 03:32:05,VALID,1000.99,VALID,0,VALID,76.5938,VALID,0.112286,VALID,22.763,VALID,144,VALID,2.07227,
2009-07-29, 03:33:05,VALID,1000.99,VALID,0,VALID,76.6243,VALID,0.112286,VALID,22.7825,VALID,137,VALID,1.78594,
2009-07-29, 03:34:05,VALID,1000.97,VALID,0,VALID,76.5098,VALID,0.112286,VALID,22.7825,VALID,137,VALID,1.92188,
2009-07-29, 03:35:05,VALID,1001,VALID,0,VALID,76.6014,VALID,0,VALID,22.8037,VALID,135,VALID,1.4668,
2009-07-29, 03:36:05,VALID,1001,VALID,0,VALID,76.258,VALID,0.112286,VALID,22.7825,VALID,136,VALID,2.0582,
2009-07-29, 03:37:05,VALID,1000.98,VALID,0,VALID,76.4488,VALID,0.112286,VALID,22.802,VALID,153,VALID,1.31562,
2009-07-29, 03:38:05,VALID,1000.99,VALID,0,VALID,76.4106,VALID,0.112286,VALID,22.7825,VALID,142,VALID,1.78945,
2009-07-29, 03:39:05,VALID,1000.99,VALID,0,VALID,76.548,VALID,0.112286,VALID,22.7647,VALID,139,VALID,1.42734,
2009-07-29, 03:40:05,VALID,1000.99,VALID,0,VALID,76.3649,VALID,0.112286,VALID,22.724,VALID,143,VALID,2.1957,
2009-07-29, 03:41:05,VALID,1000.99,VALID,0,VALID,76.5861,VALID,0,VALID,22.7452,VALID,144,VALID,2.01328,
2009-07-29, 03:42:05,VALID,1000.99,VALID,0,VALID,76.6166,VALID,0,VALID,22.7257,VALID,155,VALID,1.54688,
2009-07-29, 03:43:05,VALID,1000.98,VALID,0,VALID,76.8379,VALID,0,VALID,22.7062,VALID,149,VALID,1.91445,
2009-07-29, 03:44:05,VALID,1000.95,VALID,0,VALID,77.0363,VALID,0,VALID,22.6477,VALID,146,VALID,2.07383,